User: anonymous   Login
Location: Fiddletown
(38.4917°N, 120.6633°W)
Time: 01:12:25
(UTC-08:00)
Language:

Envisat - Orbit

View from above orbital plane
View from above orbital plane
View from above satellite
View from above satellite

Ground track
Ground track

The orbit data is extracted from the following two-line orbital elements,

1 27386U 02009A   16036.62823297 -.00000005  00000-0  12137-4 0  9996
2 27386  98.3023  94.6717 0001000  75.1545 284.9754 14.37853407729576
Epoch (UTC): 05 February 2016 15:04:39
Eccentricity: 0.0001000
inclination: 98.3023°
perigee height: 765 km
apogee height: 766 km
right ascension of ascending node: 94.6717°
argument of perigee: 75.1545°
revolutions per day: 14.37853407
mean anomaly at epoch: 284.9754°
orbit number at epoch: 72957

The dashed part of the orbit path shows where the satellite is in the earth's shadow,  

DLR